Location: A�t Bou Chrif
(32.7193°N, 5.2385°W)
Time: 02:46:51
(UTC+00:00)

Meteor 1-10 Rocket - Pass Details

Date: 08 August 2020
Orbit: 836 x 910 km, 81.3° (Epoch: 20 September)

Event Time Altitude Azimuth Distance (km) Brightness Sun altitude
Rises 20:27:21 0° 358° (N) 3,434 7.8 -15.1°
Reaches altitude 10° 20:29:51 10° 3° (N) 2,505 7.0 -15.5°
Maximum altitude 20:35:23 52° 79° (E) 1,082 4.5 -16.5°
Enters shadow 20:38:36 25° 145° (SE) 1,711 5.3 -17.1°
